Regional Weather Roundup
Issued by NWS Newport/Morehead, NC

Current Version | Previous Version | Graphics & Text | Print | Product List | Glossary Off
Versions: 1 2 3 4 5 6 7 8 9 10 11 12 13 14 15 16 17 18 19 20 21 22 23 24 25 26 27 28 29 30 31 32 33 34 35 36 37 38 39 40 41 42 43 44 45 46 47 48 49 50

000
ASUS42 KMHX 260810
RWRMHX
WEATHER ROUNDUP FOR EASTERN NORTH CAROLINA
NATIONAL WEATHER SERVICE NEWPORT/MOREHEAD CITY NC
300 AM EST MON JAN 26 2015

NOTE: "FAIR" INDICATES FEW OR NO CLOUDS BELOW 12,000 FEET
WITH NO SIGNIFICANT WEATHER AND/OR OBSTRUCTIONS TO VISIBILITY

NCZ015>017-031-032-045>047-102-103-260900-
NORTH COAST

CITY           SKY/WX    TMP DP  RH WIND       PRES   REMARKS
EDENTON        PTCLDY    38  36  92 CALM      29.78F
ELIZABETH CITY MOCLDY    39  37  92 E3        29.80F
KITTY HAWK     PTSUNNY   43  41  92 E5        29.79F
MANTEO         PTCLDY    39  37  93 E3        29.80F

$$

NCZ045>047-081-094-103-104-260900-
CENTRAL COAST

CITY           SKY/WX    TMP DP  RH WIND       PRES   REMARKS
FRISCO         MOCLDY    47  41  80 NE7       29.79F
SWANQUARTER    NOT AVBL

$$

NCZ095-097-098-100-101-260900-
SOUTHERN COAST

CITY           SKY/WX    TMP DP  RH WIND       PRES   REMARKS
BEAUFORT       PTCLDY    43  42  97 N3        29.79S
CEDAR ISLAND   NOT AVBL
JACKSONVILLE   PTCLDY    40  38  93 S3        29.78F
PINEY ISLAND     N/A    N/A N/A N/A MISG      29.78F
WILMINGTON     MOCLDY    47  43  86 S6        29.77F


$$

NCZ011>013-027>030-043-044-078>080-089-090>093-098-260900-
COASTAL PLAIN

CITY           SKY/WX    TMP DP  RH WIND       PRES   REMARKS
AHOSKIE        MOCLDY    34  33  94 CALM      29.77F
CLINTON        CLEAR     39  38  97 CALM      29.75F
ELIZABETHTOWN  CLEAR     40  39  97 S3        29.75F
GOLDSBORO      PTCLDY    37  37  99 E3        29.74F
GREENVILLE     PTCLDY    36  36 100 CALM      29.79F
HAVELOCK       PTCLDY    37  35  92 CALM      29.80F
KENANSVILLE    CLEAR     33  33 100 CALM      29.77F
KINSTON        CLEAR     35  34  96 CALM      29.78S
NEW BERN       PTCLDY    38  34  85 S3        29.79F
RICHLANDS      PTCLDY    36  32  87 CALM      29.78S
ROCKY MOUNT    MOCLDY    39  35  86 CALM      29.75F
WASHINGTON     PTCLDY    37  35  92 CALM      29.77F
WHITEVILLE     PTCLDY    40  38  92 CALM      29.75F

$$

AMZ130-135-150-152-154-156-158-170-250-252-270-ANZ085-086-088-633-658-670-260900-
MARINE OBSERVATIONS

STATION/POSITION TIME  TEMP    WIND        PRES    WAVE   SWELL
                       AIR SEA DIR/SP/G            HT/PER HT/PER
                 (UTC) (F)     (DEG/KT/KT) (MB)    (FT/S) (FT/S)
CHESAPEAKE LIGHT 0700   45     130/  4/  4 1011.0
64 E VA BEACH    0800   50 53   70/  2/  2 1009.8    3/ 9   3/ 9
DUCK             0800   43 44  120/  5/  5 1008.6
2 E DUCK         0800      43                N/A     2/ 9   2/11
10 NE DUCK       0800      44                N/A     2/ 8   2/11
OREGON INLET     0800   44 47   50/  3/  4 1009.5
13E OREGON INLT  0800      45                N/A     3/ 9   2/11
HATTERAS CG      0800   48 53   60/  5/  7 1008.9
DIAMOND BUOY     0800   63 69  220/ 16/ 19 1008.1    4/ 8   3/ 8
17 S OCRACOKE    NOT AVBL
CAPE LOOKOUT     0700   54     250/  4/  5 1008.6
BEAUFORT LAB     0800   47 51  330/  2/  2 1007.7
27 SE WRIGHTSVLE NOT AVBL
5 SE WRIGHTSVLE  0700   53 51  230/ 12/ 14 1008.7
225 S CAPE HAT   0658   68 72  240/ 14/ 17 1011.1    5/ 7   3/ 7
41 SE CHARLESTON 0800   62 69  240/ 21/ 27 1007.9    7/ 7   2/10

$$



USA.gov is the U.S. government's official web portal to all federal, state and local government web resources and services.